2023-001N (55021 NORAD) Tracking and Keplerian Element Data

This shows tracking and keplerian element data for the satellite.

Feedback or suggestion? Click here.




ElementValue
Catalog55021
Name2023-001N
Epoch Orbit169
Epoch Day13.78724071
Epoch Year2023
RAAN75.7272
Inclination97.5013
Eccentricity0.0011482
Argument of Perigee177.518
Mean Anonmoly182.6109
Mean Motion15.12304746
Decay Rate8.745E-05
L11 55021U 23001N 23013.78724071 .00008745 00000+0 50779-3 0 9998
L22 55021 97.5013 75.7272 0011482 177.5180 182.6109 15.12304746 1691



Live tracking and technical data element details for 2023-001N (NORAD 55021). 2023-001N can be tracked NOW for your location showing map with azimuth and elevation plus other details from your city location.







IsCatalogInMostPopularTable: catalog: 55021, numindb: 3
Update: records affected: 1



GetName: 55021 2023-001N

Hit Count: updated at: Tue, 07 Feb 2023 14:25:14 GMT